| time (UTC) | temp F | wind direction | speed knots | gust knots | rain 1hr in | rain 24hr in | rain mn in | humidity % | barometer mb |
| 20260510153515 | 55 | 18 | 5.2 | 12.2 | 0.00 | 0.00 | 0.00 | ||
| 20260510152515 | 55 | 14 | 5.2 | 11.3 | 0.00 | 0.00 | 0.00 | ||
| 20260510151615 | 55 | 13 | 5.2 | 13.0 | 0.00 | 0.00 | 0.00 | ||
| 20260510145515 | 55 | 17 | 6.1 | 13.0 | 0.00 | 0.00 | 0.00 | ||
| 20260510144556 | 55 | 15 | 5.2 | 12.2 | 0.00 | 0.00 | 0.00 | ||
| 20260510143655 | 56 | 13 | 5.2 | 11.3 | 0.00 | 0.00 | 0.00 | ||
| 20260510142515 | 55 | 12 | 5.2 | 14.8 | 0.00 | 0.00 | 0.00 | ||
| 20260510141655 | 56 | 19 | 5.2 | 13.0 | 0.00 | 0.00 | 0.00 | ||
| 20260510140535 | 55 | 18 | 5.2 | 11.3 | 0.00 | 0.00 | 0.00 | ||
| 20260510135655 | 55 | 21 | 4.3 | 9.6 | 0.00 | 0.00 | 0.00 | ||
| 20260510134535 | 55 | 7 | 6.1 | 13.9 | 0.00 | 0.00 | 0.00 | ||
| 20260510133515 | 55 | 13 | 5.2 | 10.4 | 0.00 | 0.00 | 0.00 | ||
| 20260510132515 | 56 | 14 | 7.0 | 15.6 | 0.00 | 0.00 | 0.00 | ||
| 20260510131515 | 56 | 11 | 6.1 | 17.4 | 0.00 | 0.00 | 0.00 | ||
| 20260510130515 | 56 | 27 | 5.2 | 13.0 | 0.00 | 0.00 | 0.00 | ||
| 20260510125515 | 56 | 12 | 6.1 | 12.2 | 0.00 | 0.00 | 0.00 | ||
| 20260510124515 | 56 | 11 | 6.1 | 17.4 | 0.00 | 0.00 | 0.00 | ||
| 20260510123515 | 57 | 30 | 6.1 | 15.6 | 0.00 | 0.00 | 0.00 | ||
| 20260510122535 | 56 | 8 | 6.1 | 13.9 | 0.00 | 0.00 | 0.00 | ||
| 20260510121515 | 55 | 13 | 6.1 | 14.8 | 0.00 | 0.00 | 0.00 | ||
| 20260510120555 | 54 | 12 | 6.1 | 13.9 | 0.00 | 0.00 | 0.00 | ||
| 20260510115515 | 54 | 9 | 6.1 | 13.0 | 0.00 | 0.00 | 0.00 | ||
| 20260510114535 | 55 | 13 | 5.2 | 13.0 | 0.00 | 0.00 | 0.00 | ||
| 20260510113535 | 55 | 20 | 5.2 | 11.3 | 0.00 | 0.00 | 0.00 | ||
| 20260510112516 | 54 | 10 | 6.1 | 13.9 | 0.00 | 0.00 | 0.00 | ||
| 20260510111515 | 53 | 10 | 6.1 | 15.6 | 0.00 | 0.00 | 0.00 | ||
| 20260510110555 | 53 | 13 | 6.1 | 18.2 | 0.00 | 0.00 | 0.00 | ||
| 20260510105515 | 54 | 13 | 4.3 | 11.3 | 0.00 | 0.00 | 0.00 | ||
| 20260510104515 | 53 | 13 | 5.2 | 13.0 | 0.00 | 0.00 | 0.00 | ||
| 20260510103535 | 53 | 3 | 5.2 | 14.8 | 0.00 | 0.00 | 0.00 | ||
| 20260510102535 | 53 | 8 | 6.1 | 13.0 | 0.00 | 0.00 | 0.00 | ||
| 20260510101535 | 54 | 11 | 4.3 | 12.2 | 0.00 | 0.00 | 0.00 | ||
| 20260510100524 | 54 | 25 | 5.2 | 13.9 | 0.00 | 0.00 | 0.00 | ||
| 20260510095515 | 53 | 8 | 5.2 | 11.3 | 0.00 | 0.00 | 0.00 | ||
| 20260510094535 | 53 | 12 | 6.1 | 13.9 | 0.00 | 0.00 | 0.00 | ||
| 20260510093515 | 54 | 8 | 3.5 | 12.2 | 0.00 | 0.00 | 0.00 | ||
| 20260510092535 | 54 | 9 | 6.1 | 13.9 | 0.00 | 0.00 | 0.00 | ||
| 20260510091555 | 53 | 18 | 4.3 | 12.2 | 0.00 | 0.00 | 0.00 | ||
| 20260510090535 | 53 | 11 | 4.3 | 10.4 | 0.00 | 0.00 | 0.00 | ||
| 20260510085615 | 53 | 6 | 5.2 | 12.2 | 0.00 | 0.00 | 0.00 | ||
| 20260510084615 | 53 | 18 | 4.3 | 11.3 | 0.00 | 0.00 | 0.00 | ||
| 20260510083515 | 53 | 9 | 6.1 | 13.0 | 0.00 | 0.00 | 0.00 | ||
| 20260510082555 | 54 | 18 | 4.3 | 10.4 | 0.00 | 0.00 | 0.00 | ||
| 20260510081515 | 54 | 8 | 5.2 | 12.2 | 0.00 | 0.00 | 0.00 | ||
| 20260510080555 | 55 | 12 | 5.2 | 11.3 | 0.00 | 0.00 | 0.00 | ||
| 20260510075535 | 54 | 21 | 5.2 | 12.2 | 0.00 | 0.00 | 0.00 | ||
| 20260510074517 | 54 | 25 | 5.2 | 13.9 | 0.00 | 0.00 | 0.00 | ||
| 20260510073515 | 53 | 18 | 6.1 | 16.5 | 0.00 | 0.00 | 0.00 | ||
| 20260510072515 | 53 | 17 | 4.3 | 11.3 | 0.00 | 0.00 | 0.00 | ||
| 20260510071515 | 52 | 13 | 5.2 | 12.2 | 0.00 | 0.00 | 0.00 | ||
| 20260510070515 | 52 | 18 | 3.5 | 9.6 | 0.00 | 0.00 | 0.00 | ||
| 20260510065555 | 52 | 11 | 5.2 | 11.3 | 0.00 | 0.00 | 0.00 | ||
| 20260510064515 | 51 | 16 | 2.6 | 7.8 | 0.00 | 0.00 | 0.00 | ||
| 20260510063535 | 51 | 15 | 3.5 | 9.6 | 0.00 | 0.00 | 0.00 | ||
| 20260510062535 | 51 | 14 | 4.3 | 11.3 | 0.00 | 0.00 | 0.00 | ||
| 20260510061516 | 51 | 12 | 5.2 | 12.2 | 0.00 | 0.00 | 0.00 | ||
| 20260510060515 | 51 | 10 | 5.2 | 11.3 | 0.00 | 0.00 | 0.00 | ||
| 20260510055515 | 50 | 8 | 2.6 | 7.8 | 0.00 | 0.00 | 0.00 | ||
| 20260510054515 | 49 | 10 | 2.6 | 8.7 | 0.00 | 0.00 | 0.00 | ||
| 20260510053615 | 49 | 14 | 3.5 | 8.7 | 0.00 | 0.00 | 0.00 | ||
| 20260510052535 | 49 | 13 | 3.5 | 7.8 | 0.00 | 0.00 | 0.00 | ||
| 20260510051515 | 49 | 10 | 4.3 | 7.8 | 0.00 | 0.00 | 0.00 | ||
| 20260510050535 | 49 | 9 | 4.3 | 9.6 | 0.00 | 0.00 | 0.00 | ||
| 20260510045615 | 48 | 9 | 3.5 | 9.6 | 0.00 | 0.00 | 0.00 | ||
| 20260510044535 | 48 | 9 | 5.2 | 9.6 | 0.00 | 0.00 | 0.00 | ||
| 20260510043536 | 48 | 8 | 4.3 | 7.8 | 0.00 | 0.00 | 0.00 | ||
| 20260510042535 | 48 | 9 | 2.6 | 7.0 | 0.00 | 0.00 | 0.00 | ||
| 20260510041515 | 48 | 7 | 2.6 | 7.0 | 0.00 | 0.00 | 0.00 | ||
| 20260510040615 | 48 | 12 | 2.6 | 7.8 | 0.00 | 0.00 | 0.00 | ||
| 20260510035535 | 48 | 9 | 2.6 | 7.8 | 0.00 | 0.00 | 0.00 | ||
| 20260510034515 | 48 | 11 | 3.5 | 10.4 | 0.00 | 0.00 | 0.00 | ||
| 20260510033635 | 48 | 9 | 2.6 | 9.6 | 0.00 | 0.00 | 0.00 | ||
| 20260510032535 | 48 | 6 | 5.2 | 11.3 | 0.00 | 0.00 | 0.00 | ||
| 20260510030535 | 48 | 6 | 4.3 | 9.6 | 0.00 | 0.00 | 0.00 | ||
| 20260510025515 | 48 | 7 | 4.3 | 9.6 | 0.00 | 0.00 | 0.00 | ||
| 20260510024516 | 48 | 7 | 3.5 | 7.8 | 0.00 | 0.00 | 0.00 | ||
| 20260510022515 | 48 | 9 | 3.5 | 7.8 | 0.00 | 0.00 | 0.00 | ||
| 20260510021535 | 49 | 7 | 3.5 | 8.7 | 0.00 | 0.00 | 0.00 | ||
| 20260510020535 | 49 | 10 | 3.5 | 7.0 | 0.00 | 0.00 | 0.00 | ||
| 20260510015535 | 49 | 10 | 3.5 | 8.7 | 0.00 | 0.00 | 0.00 | ||
| 20260510014516 | 49 | 9 | 3.5 | 8.7 | 0.00 | 0.00 | 0.00 | ||
| 20260510013515 | 49 | 9 | 3.5 | 9.6 | 0.00 | 0.00 | 0.00 | ||
| 20260510012615 | 49 | 6 | 3.5 | 9.6 | 0.00 | 0.00 | 0.00 | ||
| 20260510011535 | 49 | 4 | 2.6 | 7.0 | 0.00 | 0.00 | 0.00 | ||
| 20260510010515 | 49 | 5 | 2.6 | 6.1 | 0.00 | 0.00 | 0.00 | ||
| 20260510005515 | 49 | 6 | 1.7 | 6.1 | 0.00 | 0.00 | 0.00 | ||
| 20260510004615 | 49 | 4 | 1.7 | 6.1 | 0.00 | 0.00 | 0.00 | ||
| 20260510003515 | 49 | 3 | 2.6 | 6.1 | 0.00 | 0.00 | 0.00 | ||
| 20260510002635 | 49 | 4 | 2.6 | 6.1 | 0.00 | 0.00 | 0.00 | ||
| 20260510001515 | 49 | 7 | 3.5 | 7.0 | 0.00 | 0.00 | 0.00 | ||
| 20260510000555 | 50 | 7 | 2.6 | 7.0 | 0.00 | 0.00 | 0.00 | ||
| 20260509235515 | 50 | 7 | 2.6 | 7.0 | 0.00 | 0.00 | 0.00 | ||
| 20260509234515 | 49 | 3 | 1.7 | 4.3 | 0.00 | 0.00 | 0.00 | ||
| 20260509233615 | 49 | 4 | 2.6 | 7.8 | 0.00 | 0.00 | 0.00 | ||
| 20260509232555 | 49 | 9 | 2.6 | 5.2 | 0.00 | 0.00 | 0.00 | ||
| 20260509231535 | 49 | 9 | 2.6 | 7.8 | 0.00 | 0.00 | 0.00 | ||
| 20260509230636 | 49 | 8 | 3.5 | 9.6 | 0.00 | 0.00 | 0.00 | ||
| 20260509225635 | 49 | 6 | 2.6 | 7.0 | 0.00 | 0.00 | 0.00 | ||
| 20260509224535 | 49 | 360 | 0.9 | 3.5 | 0.00 | 0.00 | 0.00 | ||
| 20260509223535 | 50 | 2 | 1.7 | 5.2 | 0.00 | 0.00 | 0.00 | ||
| 20260509222535 | 50 | 359 | 0.9 | 4.3 | 0.00 | 0.00 | 0.00 | ||
| 20260509221535 | 51 | 8 | 1.7 | 7.0 | 0.00 | 0.00 | 0.00 | ||
| 20260509220515 | 51 | 17 | 0.9 | 4.3 | 0.00 | 0.00 | 0.00 | ||
| 20260509215555 | 51 | 7 | 0.0 | 2.6 | 0.00 | 0.00 | 0.00 | ||
| 20260509214515 | 52 | 8 | 1.7 | 5.2 | 0.00 | 0.00 | 0.00 | ||
| 20260509213535 | 52 | 10 | 2.6 | 6.1 | 0.00 | 0.00 | 0.00 | ||
| 20260509212535 | 52 | 19 | 1.7 | 5.2 | 0.00 | 0.00 | 0.00 | ||
| 20260509211555 | 53 | 17 | 2.6 | 6.1 | 0.00 | 0.00 | 0.00 | ||
| 20260509210655 | 53 | 18 | 1.7 | 6.1 | 0.00 | 0.00 | 0.00 | ||
| 20260509205515 | 53 | 13 | 1.7 | 6.1 | 0.00 | 0.00 | 0.00 | ||
| 20260509204535 | 53 | 27 | 1.7 | 5.2 | 0.00 | 0.00 | 0.00 | ||
| 20260509203515 | 53 | 21 | 1.7 | 5.2 | 0.00 | 0.00 | 0.00 | ||
| 20260509202535 | 54 | 358 | 0.0 | 3.5 | 0.00 | 0.00 | 0.00 | ||
| 20260509201516 | 55 | 21 | 0.9 | 5.2 | 0.00 | 0.00 | 0.00 | ||
| 20260509200515 | 55 | 24 | 1.7 | 6.1 | 0.00 | 0.00 | 0.00 | ||
| 20260509195555 | 56 | 16 | 1.7 | 5.2 | 0.00 | 0.00 | 0.00 | ||
| 20260509194515 | 57 | 34 | 1.7 | 5.2 | 0.00 | 0.00 | 0.00 | ||
| 20260509193515 | 57 | 37 | 0.9 | 5.2 | 0.00 | 0.00 | 0.00 | ||
| 20260509192515 | 58 | 18 | 0.0 | 3.5 | 0.00 | 0.00 | 0.00 | ||
| 20260509191555 | 58 | 40 | 0.9 | 4.3 | 0.00 | 0.00 | 0.00 | ||
| 20260509190515 | 59 | 36 | 0.9 | 4.3 | 0.00 | 0.00 | 0.00 | ||
| 20260509185517 | 60 | 43 | 0.9 | 4.3 | 0.00 | 0.00 | 0.00 | ||
| 20260509184555 | 61 | 21 | 3.5 | 7.0 | 0.00 | 0.00 | 0.00 | ||
| 20260509183555 | 62 | 19 | 1.7 | 5.2 | 0.00 | 0.00 | 0.00 | ||
| 20260509182515 | 63 | 41 | 1.7 | 7.0 | 0.00 | 0.00 | 0.00 | ||
| 20260509181515 | 66 | 32 | 1.7 | 7.0 | 0.00 | 0.00 | 0.00 | ||
| 20260509180535 | 66 | 17 | 3.5 | 8.7 | 0.00 | 0.00 | 0.00 | ||
| 20260509175515 | 68 | 34 | 2.6 | 8.7 | 0.00 | 0.00 | 0.00 | ||
| 20260509174515 | 69 | 37 | 2.6 | 7.0 | 0.00 | 0.00 | 0.00 | ||
| 20260509173535 | 69 | 38 | 2.6 | 8.7 | 0.00 | 0.00 | 0.00 | ||
| 20260509172535 | 71 | 35 | 1.7 | 5.2 | 0.00 | 0.00 | 0.00 | ||
| 20260509171515 | 71 | 44 | 1.7 | 6.1 | 0.00 | 0.00 | 0.00 | ||
| 20260509170515 | 71 | 45 | 1.7 | 7.8 | 0.00 | 0.00 | 0.00 | ||
| 20260509165515 | 71 | 37 | 1.7 | 5.2 | 0.00 | 0.00 | 0.00 | ||
| 20260509164555 | 71 | 30 | 0.9 | 7.0 | 0.00 | 0.00 | 0.00 | ||
| 20260509162515 | 72 | 42 | 1.7 | 7.0 | 0.00 | 0.00 | 0.00 | ||
| 20260509161615 | 71 | 37 | 0.9 | 7.8 | 0.00 | 0.00 | 0.00 | ||
| 20260509160535 | 72 | 46 | 2.6 | 9.6 | 0.00 | 0.00 | 0.00 | ||
| 20260509155555 | 72 | 19 | 2.6 | 10.4 | 0.00 | 0.00 | 0.00 | ||
| 20260509154515 | 72 | 52 | 0.9 | 5.2 | 0.00 | 0.00 | 0.00 |